EW5297 Upper Orara AU current weather conditions

sailwx.info

Wind from 154 at 1 knots gusting 14

Air temperature 16.1° C
Dewpoint 10.0° C

Last reported at 2020-Jul-14 04:03 UTC.
Time now 2020-Jul-14 04:34 UTC

Location: S 30°15' E 152°58'.
View on Google Maps.

See reports from other nearby stations

  
Tides and Currents Weather Stations Pressure Air Temp Water Temp Dewpoint Dewpoint Depression Visibility Wind Speed Wind Dir Waves Ship Positions
date/time (UTC)wind fromknots sea level pressurealtimeterstation pressurevisibilityair tempwater tempwave heightnotes
2020-Jul-14 04:03 154 1 gusting 14 16.1
2020-Jul-14 03:58 338 16.1
2020-Jul-14 03:53 331 3 gusting 13 16.1
2020-Jul-14 03:48 017 0 gusting 15 15.6
2020-Jul-14 03:43 144 1 gusting 15 15.6
2020-Jul-14 03:38 350 1 gusting 13 15.6
2020-Jul-14 03:33 053 15.6
2020-Jul-14 03:28 053 15.6
2020-Jul-14 03:23 050 15.6
2020-Jul-14 03:18 327 15.6
2020-Jul-14 03:13 308 15.6
2020-Jul-14 03:08 143 1 gusting 13 15.6
2020-Jul-14 03:03 328 2 gusting 10 15.0
2020-Jul-14 02:58 113 15.0
2020-Jul-14 02:53 360 1 gusting 6 15.0
2020-Jul-14 02:48 183 0 gusting 7 15.0
2020-Jul-14 02:43 319 0 gusting 7 15.0
2020-Jul-14 02:38 059 0 gusting 13 15.0
2020-Jul-14 02:33 155 2 gusting 13 15.0
2020-Jul-14 02:28 336 15.0
2020-Jul-14 02:23 282 0 gusting 14 15.0
2020-Jul-14 02:18 141 3 gusting 16 15.0
2020-Jul-14 02:13 144 7 gusting 22 15.0
2020-Jul-14 02:08 200 5 gusting 22 15.0
2020-Jul-14 02:03 098 2 gusting 13 15.0
2020-Jul-14 01:58 114 0 gusting 6 14.4
2020-Jul-14 01:53 106 14.4
2020-Jul-14 01:48 088 0 gusting 10 14.4
2020-Jul-14 01:43 057 14.4
2020-Jul-14 01:38 141 14.4
2020-Jul-14 01:33 346 0 gusting 13 14.4
2020-Jul-14 01:28 120 0 gusting 17 14.4
2020-Jul-14 01:23 098 3 gusting 17 13.9
2020-Jul-14 01:18 048 13.9
2020-Jul-14 01:03 311 12.8
2020-Jul-14 00:58 009 12.8
2020-Jul-14 00:53 292 13.3
2020-Jul-14 00:48 320 13.9
2020-Jul-14 00:43 313 13.9
2020-Jul-14 00:38 140 13.9
2020-Jul-14 00:28 355 0 gusting 5 13.9
2020-Jul-14 00:23 300 14.4
2020-Jul-14 00:18 005 14.4
2020-Jul-14 00:13 068 13.9
2020-Jul-14 00:08 328 14.4
2020-Jul-14 00:03 049 0 gusting 9 14.4
2020-Jul-13 23:58 297 2 gusting 9 13.9
2020-Jul-13 23:53 346 13.9
2020-Jul-13 23:38 022 13.9
2020-Jul-13 23:33 341 13.3
2020-Jul-13 23:28 322 0 gusting 5 13.3
2020-Jul-13 23:23 285 13.3
2020-Jul-13 23:18 335 13.3
2020-Jul-13 23:13 321 12.8
2020-Jul-13 23:08 016 12.8
2020-Jul-13 23:03 154 12.8
2020-Jul-13 22:58 343 12.8
2020-Jul-13 22:53 340 0 gusting 8 12.8
2020-Jul-13 22:48 333 0 gusting 8 12.2
2020-Jul-13 22:43 348 11.7
2020-Jul-13 22:38 323 11.7
2020-Jul-13 22:33 326 11.7
2020-Jul-13 22:28 337 11.7
2020-Jul-13 22:23 325 11.1
2020-Jul-13 22:18 344 11.1
2020-Jul-13 22:13 321 10.6
2020-Jul-13 22:08 335 11.1
2020-Jul-13 22:04 329 11.1
2020-Jul-13 21:58 331 11.1
2020-Jul-13 21:49 303 0 gusting 8 11.1
2020-Jul-13 21:43 313 1 gusting 8 11.1
2020-Jul-13 21:38 342 11.1
2020-Jul-13 21:33 337 11.1
2020-Jul-13 21:28 308 11.1
2020-Jul-13 21:23 355 11.1
2020-Jul-13 21:18 324 11.1
2020-Jul-13 21:13 350 0 gusting 6 11.1
2020-Jul-13 21:08 329 10.6
2020-Jul-13 21:03 329 10.6
2020-Jul-13 20:58 333 11.1
2020-Jul-13 20:53 331 10.6
2020-Jul-13 20:48 329 10.6
2020-Jul-13 20:43 342 0 gusting 4 10.6
2020-Jul-13 20:38 343 10.0
2020-Jul-13 20:33 340 10.0
2020-Jul-13 20:28 320 10.0
2020-Jul-13 20:23 346 10.0
2020-Jul-13 20:18 337 0 gusting 3 10.0
2020-Jul-13 20:13 313 10.0
2020-Jul-13 20:08 301 10.0
2020-Jul-13 20:03 335 0 gusting 6 10.0
2020-Jul-13 19:58 005 10.0
2020-Jul-13 19:53 333 10.0
2020-Jul-13 19:48 329 0 gusting 5 9.4
2020-Jul-13 19:43 327 10.0
2020-Jul-13 19:38 340 9.4
2020-Jul-13 19:33 334 10.0
2020-Jul-13 19:28 334 10.0
2020-Jul-13 19:23 333 10.0
2020-Jul-13 19:18 348 0 gusting 5 10.0
2020-Jul-13 19:13 325 10.0
2020-Jul-13 19:08 024 0 gusting 7 10.0
2020-Jul-13 19:03 304 1 gusting 7 10.0
2020-Jul-13 18:58 355 10.0
2020-Jul-13 18:53 333 10.0
2020-Jul-13 18:48 337 0 gusting 6 10.0
2020-Jul-13 18:43 323 0 gusting 6 10.0
2020-Jul-13 18:38 355 9.4
2020-Jul-13 18:33 323 0 gusting 9 9.4
2020-Jul-13 18:28 349 9.4
2020-Jul-13 18:23 355 0 gusting 9 9.4
2020-Jul-13 18:18 005 0 gusting 11 9.4
2020-Jul-13 18:13 323 0 gusting 11 9.4
2020-Jul-13 18:08 347 8.9
2020-Jul-13 18:03 355 8.9
2020-Jul-13 17:58 338 8.9
2020-Jul-13 17:53 346 8.9
2020-Jul-13 17:48 318 0 gusting 3 8.9
2020-Jul-13 17:43 005 8.9
2020-Jul-13 17:38 306 8.3
2020-Jul-13 17:33 323 8.3
2020-Jul-13 17:28 013 7.8
2020-Jul-13 17:23 322 7.8
2020-Jul-13 17:18 325 7.8
2020-Jul-13 17:13 325 7.8
2020-Jul-13 17:08 109 8.3
2020-Jul-13 17:03 022 8.3
2020-Jul-13 16:58 030 8.3
2020-Jul-13 16:53 355 8.3
2020-Jul-13 16:48 310 8.3
2020-Jul-13 16:43 329 7.8
2020-Jul-13 16:38 309 7.8
2020-Jul-13 16:33 346 7.8
2020-Jul-13 16:28 337 7.2
2020-Jul-13 16:23 337 7.2
2020-Jul-13 16:18 337 7.2
2020-Jul-13 16:13 329 7.2
2020-Jul-13 16:08 268 7.2
2020-Jul-13 16:03 268 7.2
2020-Jul-13 15:58 268 7.2
2020-Jul-13 15:53 268 7.8
2020-Jul-13 15:48 268 7.8
2020-Jul-13 15:43 261 7.8
2020-Jul-13 15:38 261 7.2
2020-Jul-13 15:33 228 7.2
2020-Jul-13 15:28 228 7.8
2020-Jul-13 15:23 228 7.2
2020-Jul-13 15:18 228 7.2
2020-Jul-13 15:13 228 7.2
2020-Jul-13 15:08 228 7.2
2020-Jul-13 15:03 309 7.8
2020-Jul-13 14:58 309 7.8
2020-Jul-13 14:53 309 7.8
2020-Jul-13 14:48 309 7.8
2020-Jul-13 14:43 309 7.8
2020-Jul-13 14:38 309 7.8
2020-Jul-13 14:33 306 7.8
2020-Jul-13 14:28 306 7.8
2020-Jul-13 14:23 306 7.8
2020-Jul-13 14:18 306 7.8
2020-Jul-13 14:13 306 7.8
2020-Jul-13 14:08 306 7.8
2020-Jul-13 14:03 306 7.8
2020-Jul-13 13:58 306 8.3
2020-Jul-13 13:53 306 8.3
2020-Jul-13 13:48 306 8.3
2020-Jul-13 13:43 306 8.3
2020-Jul-13 13:38 306 8.3
2020-Jul-13 13:33 306 8.3
2020-Jul-13 13:28 306 8.3
2020-Jul-13 13:23 305 8.3
2020-Jul-13 13:18 303 8.9
2020-Jul-13 13:13 303 8.9
2020-Jul-13 13:08 303 8.9
2020-Jul-13 13:03 303 8.9
2020-Jul-13 12:58 303 8.9
2020-Jul-13 12:53 333 0 gusting 3 8.9
2020-Jul-13 12:48 330 9.4
2020-Jul-13 12:43 327 9.4
2020-Jul-13 12:38 325 9.4
2020-Jul-13 12:33 323 8.9
2020-Jul-13 12:28 324 8.9
2020-Jul-13 12:23 324 8.9
2020-Jul-13 12:18 318 8.9
2020-Jul-13 12:13 355 9.4
2020-Jul-13 12:08 122 9.4
2020-Jul-13 12:03 122 9.4
2020-Jul-13 11:58 122 9.4
2020-Jul-13 11:53 081 9.4
2020-Jul-13 11:48 081 9.4
2020-Jul-13 11:43 081 9.4
2020-Jul-13 11:38 081 9.4
2020-Jul-13 11:33 106 9.4
2020-Jul-13 11:28 106 9.4
2020-Jul-13 11:23 106 9.4
2020-Jul-13 11:18 106 10.0
2020-Jul-13 11:13 106 10.0
2020-Jul-13 11:08 090 10.0
2020-Jul-13 11:03 335 10.6
2020-Jul-13 10:58 335 10.6
2020-Jul-13 10:53 349 11.1
2020-Jul-13 10:48 348 10.6
2020-Jul-13 10:43 328 10.6
2020-Jul-13 10:38 292 10.6
2020-Jul-13 10:33 306 10.6
2020-Jul-13 10:28 337 10.0
2020-Jul-13 10:23 333 10.0
2020-Jul-13 10:18 310 10.0
2020-Jul-13 10:13 310 10.0
2020-Jul-13 10:08 019 9.4
2020-Jul-13 10:03 049 9.4
2020-Jul-13 09:58 057 9.4
2020-Jul-13 09:53 316 9.4
2020-Jul-13 09:48 317 9.4
2020-Jul-13 09:43 317 8.9
2020-Jul-13 09:38 317 8.9
2020-Jul-13 09:33 317 8.9
2020-Jul-13 09:28 317 8.9
2020-Jul-13 09:23 317 8.9
2020-Jul-13 09:18 317 8.9
2020-Jul-13 09:13 317 8.9
2020-Jul-13 09:08 317 8.9
2020-Jul-13 09:03 317 8.9
2020-Jul-13 08:58 317 8.9
2020-Jul-13 08:53 317 8.9
2020-Jul-13 08:48 317 8.9
2020-Jul-13 08:43 317 8.9
2020-Jul-13 08:38 317 8.9
2020-Jul-13 08:33 317 8.9
2020-Jul-13 08:28 317 8.9
2020-Jul-13 08:23 317 8.9
2020-Jul-13 08:18 317 8.9
2020-Jul-13 08:13 317 8.9
2020-Jul-13 08:08 317 8.9
2020-Jul-13 08:03 317 9.4
2020-Jul-13 07:58 317 9.4
2020-Jul-13 07:53 317 9.4
2020-Jul-13 07:48 311 9.4
2020-Jul-13 07:43 311 9.4
2020-Jul-13 07:38 311 9.4
2020-Jul-13 07:33 311 10.0
2020-Jul-13 07:28 311 10.0
2020-Jul-13 07:23 311 10.0
2020-Jul-13 07:18 311 10.0
2020-Jul-13 07:13 311 10.0
2020-Jul-13 07:08 311 10.0
2020-Jul-13 07:03 311 10.6
2020-Jul-13 06:58 311 10.6
2020-Jul-13 06:53 311 10.6
2020-Jul-13 06:48 311 11.1
2020-Jul-13 06:43 311 11.1
2020-Jul-13 06:38 311 11.1
2020-Jul-13 06:33 323 11.7
2020-Jul-13 06:28 317 11.7
2020-Jul-13 06:23 317 12.2
2020-Jul-13 06:18 317 12.8
2020-Jul-13 06:13 317 12.8
2020-Jul-13 06:08 317 13.3
2020-Jul-13 06:03 317 13.9
2020-Jul-13 05:58 317 14.4
2020-Jul-13 05:53 324 14.4
2020-Jul-13 05:48 323 15.0
2020-Jul-13 05:43 323 15.0
2020-Jul-13 05:38 317 15.0
2020-Jul-13 05:33 316 15.0
2020-Jul-13 05:28 264 15.0
2020-Jul-13 05:23 260 15.6
2020-Jul-13 05:18 260 15.6
2020-Jul-13 05:13 260 16.1
2020-Jul-13 05:08 260 16.1
2020-Jul-13 05:03 177 16.1
2020-Jul-13 04:58 177 16.1
2020-Jul-13 04:53 177 16.1
2020-Jul-13 04:48 177 16.1
2020-Jul-13 04:43 177 16.1
2020-Jul-13 04:38 173 16.7
2020-Jul-13 04:33 164 16.7
2020-Jul-13 04:28 162 16.7
2020-Jul-13 04:23 162 16.7
2020-Jul-13 04:18 161 16.1
2020-Jul-13 04:13 159 16.7
2020-Jul-13 04:08 154 16.7
2020-Jul-13 04:03 145 16.1
2020-Jul-13 03:58 145 16.1
2020-Jul-13 03:53 129 16.7
2020-Jul-13 03:48 150 16.7
2020-Jul-13 03:43 150 16.7
2020-Jul-13 03:38 154 16.7
2020-Jul-13 03:33 150 16.7
2020-Jul-13 03:28 024 16.7
2020-Jul-13 03:23 023 16.7
2020-Jul-13 03:18 054 16.1
2020-Jul-13 03:13 065 16.1
2020-Jul-13 03:03 165 16.7
2020-Jul-13 02:58 165 16.7
2020-Jul-13 02:53 165 16.7
2020-Jul-13 02:48 165 16.7
2020-Jul-13 02:43 156 16.7
2020-Jul-13 02:38 188 16.7
2020-Jul-13 02:33 131 16.7
2020-Jul-13 02:28 131 16.7
2020-Jul-13 02:23 131 16.7
2020-Jul-13 02:13 131 16.7
2020-Jul-13 02:08 115 16.1
2020-Jul-13 02:03 134 16.1
2020-Jul-13 01:58 134 16.1
2020-Jul-13 01:53 087 16.1
2020-Jul-13 01:48 078 16.1
2020-Jul-13 01:43 053 15.6
2020-Jul-13 01:38 165 15.6
2020-Jul-13 01:13 171 15.0
2020-Jul-13 01:08 170 15.0
2020-Jul-13 01:03 170 15.0
2020-Jul-13 00:58 165 14.4
2020-Jul-13 00:53 165 14.4
2020-Jul-13 00:48 119 14.4
2020-Jul-13 00:43 119 13.9
2020-Jul-13 00:38 087 13.9
2020-Jul-13 00:33 026 13.9
2020-Jul-13 00:28 026 13.3
2020-Jul-13 00:23 322 12.8
2020-Jul-13 00:18 321 12.8
2020-Jul-13 00:13 321 12.2
2020-Jul-13 00:08 321 12.2
2020-Jul-13 00:03 321 12.2
2020-Jul-12 23:58 321 11.7
2020-Jul-12 23:53 322 11.7
2020-Jul-12 23:48 322 11.7
2020-Jul-12 23:43 322 11.1
2020-Jul-12 23:38 322 11.1
2020-Jul-12 23:33 323 11.1
2020-Jul-12 23:28 323 10.6
2020-Jul-12 23:23 323 10.6
2020-Jul-12 23:18 323 10.6
2020-Jul-12 23:13 323 10.0
2020-Jul-12 23:08 323 10.0
2020-Jul-12 23:03 323 10.0
2020-Jul-12 22:58 323 9.4
2020-Jul-12 22:53 323 9.4
2020-Jul-12 22:48 323 9.4
2020-Jul-12 22:43 323 9.4
2020-Jul-12 22:38 323 8.9
2020-Jul-12 22:33 323 8.9
2020-Jul-12 22:28 322 8.3
2020-Jul-12 22:23 322 8.3
2020-Jul-12 22:18 322 8.3
2020-Jul-12 22:13 321 7.8
2020-Jul-12 22:08 328 7.8
2020-Jul-12 22:03 319 7.8
2020-Jul-12 21:58 320 7.2
2020-Jul-12 21:53 323 7.2
2020-Jul-12 21:48 322 7.2
2020-Jul-12 21:43 156 7.2
2020-Jul-12 21:38 156 6.7
2020-Jul-12 21:33 156 7.2
2020-Jul-12 21:28 156 7.2
2020-Jul-12 21:23 156 6.7
2020-Jul-12 21:18 156 7.2
2020-Jul-12 21:13 156 7.2
2020-Jul-12 21:08 156 7.2
2020-Jul-12 21:03 156 7.2
2020-Jul-12 20:58 156 7.2
2020-Jul-12 20:53 156 7.2
2020-Jul-12 20:48 156 7.2
2020-Jul-12 20:43 156 7.2
2020-Jul-12 20:38 156 7.2
2020-Jul-12 20:33 156 7.2
2020-Jul-12 20:28 156 7.8
2020-Jul-12 20:23 156 7.8
2020-Jul-12 20:18 156 7.8
2020-Jul-12 20:13 156 7.8
2020-Jul-12 20:08 156 7.8
2020-Jul-12 20:03 156 7.8
2020-Jul-12 19:58 156 7.8
2020-Jul-12 19:53 156 7.8
2020-Jul-12 19:48 156 7.8
2020-Jul-12 19:43 156 7.8
2020-Jul-12 19:38 156 7.8
2020-Jul-12 19:33 156 8.3
2020-Jul-12 19:28 156 8.3
2020-Jul-12 19:23 156 8.3
2020-Jul-12 19:18 156 8.3
2020-Jul-12 19:13 156 8.3
2020-Jul-12 19:08 156 8.3
2020-Jul-12 19:03 156 8.3
2020-Jul-12 18:58 156 8.3
2020-Jul-12 18:53 156 8.3
2020-Jul-12 18:48 156 8.9
2020-Jul-12 18:43 156 8.9
2020-Jul-12 18:38 156 8.9
2020-Jul-12 18:33 156 8.9
2020-Jul-12 18:28 156 8.9
2020-Jul-12 18:23 156 8.9
2020-Jul-12 18:18 156 8.9
2020-Jul-12 18:13 156 8.9
2020-Jul-12 18:08 156 9.4
2020-Jul-12 18:03 156 9.4
2020-Jul-12 17:58 156 9.4
2020-Jul-12 17:53 156 9.4
2020-Jul-12 17:48 156 9.4
2020-Jul-12 17:43 156 9.4
2020-Jul-12 17:38 156 9.4
2020-Jul-12 17:33 156 9.4
2020-Jul-12 17:28 156 9.4
2020-Jul-12 17:23 156 9.4
2020-Jul-12 17:18 156 10.0
2020-Jul-12 17:13 156 10.0
2020-Jul-12 17:08 156 10.0
2020-Jul-12 17:03 156 10.0
2020-Jul-12 16:58 156 10.0
2020-Jul-12 16:53 156 10.0
2020-Jul-12 16:48 156 10.6
2020-Jul-12 16:43 156 10.6
2020-Jul-12 16:38 156 10.6
2020-Jul-12 16:33 156 10.6
2020-Jul-12 16:28 156 10.6
2020-Jul-12 16:23 156 10.6
2020-Jul-12 16:18 156 11.1
2020-Jul-12 16:13 156 10.6
2020-Jul-12 16:08 156 11.1
2020-Jul-12 16:03 156 11.1
2020-Jul-12 15:58 156 11.1
2020-Jul-12 15:53 156 11.1
2020-Jul-12 15:48 156 11.1
2020-Jul-12 15:43 156 11.1
2020-Jul-12 15:38 156 11.1
2020-Jul-12 15:33 156 11.1
2020-Jul-12 15:28 156 11.1
2020-Jul-12 15:23 156 11.7
2020-Jul-12 15:18 156 11.7
2020-Jul-12 15:13 156 11.7
2020-Jul-12 15:08 156 11.7
2020-Jul-12 15:03 156 11.7
2020-Jul-12 14:58 156 11.7
2020-Jul-12 14:53 156 11.7
2020-Jul-12 14:48 156 11.7
2020-Jul-12 14:43 156 11.7
2020-Jul-12 14:38 156 11.7
2020-Jul-12 14:33 156 12.2
2020-Jul-12 14:28 156 12.2
2020-Jul-12 14:23 156 12.2
2020-Jul-12 14:18 156 12.2
2020-Jul-12 14:13 156 12.2
2020-Jul-12 14:08 156 12.2
2020-Jul-12 14:03 156 12.2
2020-Jul-12 13:58 156 12.2
2020-Jul-12 13:53 156 12.2
2020-Jul-12 13:48 156 12.2
2020-Jul-12 13:43 156 12.2
2020-Jul-12 13:33 156 12.2
2020-Jul-12 13:28 156 12.2
2020-Jul-12 13:18 156 12.2
2020-Jul-12 13:13 156 12.2
2020-Jul-12 13:08 156 12.2
2020-Jul-12 13:03 156 12.2
2020-Jul-12 12:58 156 12.2
2020-Jul-12 12:53 156 12.2
2020-Jul-12 12:48 156 12.2
2020-Jul-12 12:43 156 12.2
2020-Jul-12 12:38 156 12.2
2020-Jul-12 12:33 156 12.8
2020-Jul-12 12:28 156 12.8
2020-Jul-12 12:23 156 12.8
2020-Jul-12 12:18 156 12.8
2020-Jul-12 12:08 156 12.8
2020-Jul-12 12:03 156 12.8
2020-Jul-12 11:58 156 12.8
2020-Jul-12 11:53 156 12.8
2020-Jul-12 11:48 156 12.8
2020-Jul-12 11:43 156 12.8
2020-Jul-12 11:38 156 12.8
2020-Jul-12 11:33 156 12.8
2020-Jul-12 11:28 156 12.8
2020-Jul-12 11:23 156 13.3
2020-Jul-12 11:18 156 13.3
2020-Jul-12 11:13 156 13.3
2020-Jul-12 11:08 156 13.3
2020-Jul-12 11:03 156 13.3
2020-Jul-12 10:58 156 13.3
2020-Jul-12 10:53 156 13.3
2020-Jul-12 10:48 156 13.3
2020-Jul-12 10:43 156 13.3
2020-Jul-12 10:38 156 13.3
2020-Jul-12 10:33 156 13.3
2020-Jul-12 10:28 156 13.3
2020-Jul-12 10:23 156 13.9
2020-Jul-12 10:18 156 13.9
2020-Jul-12 10:13 156 13.9
2020-Jul-12 10:08 156 13.9
2020-Jul-12 10:03 156 13.9
2020-Jul-12 09:58 156 13.9
2020-Jul-12 09:53 156 13.9
2020-Jul-12 09:48 156 13.9
2020-Jul-12 09:43 156 13.9
2020-Jul-12 09:38 156 13.9
2020-Jul-12 09:33 156 13.9
2020-Jul-12 09:28 156 13.9
2020-Jul-12 09:23 156 14.4
2020-Jul-12 09:18 156 14.4
2020-Jul-12 09:13 156 14.4
2020-Jul-12 09:08 156 14.4
2020-Jul-12 09:03 156 14.4
2020-Jul-12 08:58 156 14.4
2020-Jul-12 08:53 156 14.4
2020-Jul-12 08:48 156 14.4
2020-Jul-12 08:43 156 14.4
2020-Jul-12 08:38 156 14.4
2020-Jul-12 08:28 156 14.4
2020-Jul-12 08:23 156 14.4
2020-Jul-12 08:18 156 14.4
2020-Jul-12 08:13 156 14.4
2020-Jul-12 08:08 156 15.0
2020-Jul-12 08:03 156 15.0
2020-Jul-12 07:58 156 15.0
2020-Jul-12 07:53 156 15.0
2020-Jul-12 07:48 156 15.0
2020-Jul-12 07:38 156 15.0
2020-Jul-12 07:33 156 15.0
2020-Jul-12 07:28 156 15.0
2020-Jul-12 07:23 156 15.6
2020-Jul-12 07:18 156 15.6
2020-Jul-12 07:13 156 15.6
2020-Jul-12 07:08 156 15.6
2020-Jul-12 07:03 156 15.6
2020-Jul-12 06:58 156 15.6
2020-Jul-12 06:53 156 15.6
2020-Jul-12 06:48 156 15.6
2020-Jul-12 06:43 156 16.1
2020-Jul-12 06:38 156 16.1
2020-Jul-12 06:28 156 16.1
2020-Jul-12 06:23 156 16.1
2020-Jul-12 06:13 156 16.1
2020-Jul-12 06:08 156 16.7
2020-Jul-12 06:03 156 16.7
2020-Jul-12 05:58 156 16.7
2020-Jul-12 05:53 156 16.7
2020-Jul-12 05:48 156 16.7
2020-Jul-12 05:38 156 16.7
2020-Jul-12 05:33 156 16.7
2020-Jul-12 05:28 156 16.7
2020-Jul-12 05:23 156 16.7
2020-Jul-12 05:18 156 16.7
2020-Jul-12 05:13 156 16.7
2020-Jul-12 05:08 156 16.7
2020-Jul-12 05:03 156 17.2
2020-Jul-12 04:58 156 17.2
2020-Jul-12 04:48 156 17.2
2020-Jul-12 04:43 156 17.2
2020-Jul-12 04:38 156 17.2
2020-Jul-12 04:33 156 17.2
2020-Jul-12 04:28 156 17.2
2020-Jul-12 04:23 156 17.2
2020-Jul-12 04:08 156 17.2
2020-Jul-12 04:03 156 17.2